APRIZESAT 6

Satellite information

Favourite Embed

Satellite Type and Status

PAYLOADIN ORBIT

Key statistics

Satellite APRIZESAT 6 at a glance.

Uptime

5181

Days in orbit

Revolutions

≈ 14.8

Per day

Orbit

SSO

Sun Synchronous Orbit

Inclination

98.2

Latest

Satellite identification and parameters

Extended collection of information and parameters for APRIZESAT 6.

Object identification

Identified? True

Debris? False

Object name: APRIZESAT 6

International designator: 2011-044F

Object number (NORAD): 37793

Object ID (CCSDS): 37793

Country: UNITED STATES OF AMERICA (US)

Current information (Y/N): Y

RCS size: MEDIUM

Orbital parameters

Period: 97.537 minutes

Inclination: 98.245 deg

SMA: 7018.962 km

Apoapsis: 672.173 km

Periapsis: 609.481 km

RAAN: 196.5452 deg

Eccentricy: 0.00446588

Argument of periapsis: 123.518 deg

Mean anomaly: 256.917 deg

Mean motion: 14.76363972 rev/day

Mean motion (dot): 0.00001379 rev/day2

B* drag term: 0.00020337726 1/REarth

Two-line elements (TLE)

Creation date: Oct. 23, 2025, 2:46 a.m.

Reference frame: TEME

Reference center: EARTH

Epoch: Oct. 22, 2025, 11:30 p.m. UTC

TLE line 0: 0 APRIZESAT 6

TLE line 1: 1 37793U 11044F 25295.97932093 .00001379 00000-0 20338-3 0 9993

TLE line 2: 2 37793 98.2450 196.5452 0044659 123.5180 256.9170 14.76363972762147

Live tracking on map

Real-time ground track for satellite APRIZESAT 6.

In-orbit conjunctions

There are no conjunctions computed for APRIZESAT 6, at the moment. Check back to stay up to date, as we update our databases every day.

Go to all conjunctions

Associated space launch

APRIZESAT 6 was lifted into orbit during the mission ‘Dnepr 1 | Sich-2’, on board a Dnepr space rocket.

The launch took place on Aug. 17, 2011, 7:12 a.m. from 370/13.

For more information about the launch, click the button.

Launch to space Dnepr 1 | Sich-2
Dnepr 1 | Sich-2

Agency: N/A

Status: Launch Successful

Launch date: Aug. 17, 2011, 7:12 a.m. UTC

Rocket: Dnepr

Launch pad: 370/13

Location: Dombarovskiy, Russian Federation

...

Latest news about this satellite

There are no fresh news available about this satellite. Check back as we update our databases every day.


Newsletter sign-up

Weekly statistics, charts and insights to help you stay on top of the space industry.